Wind_Speed
29 28 28 28 27 27 26 26 26 26 26 26 27 27 27 28 28 29 30 30 31 32 32 33 34 35 35 36 37 38 38 39 39 39 40 40 41 41 41 42 42 43 43
31 30 30 30 29 28 28 28 27 27 27 28 28 28 28 29 30 30 31 32 32 33 34 35 35 36 36 37 38 39 40 40 41 41 42 42 42 43 43 44 44 45 45
33 32 32 31 31 30 29 29 29 29 29 29 30 30 30 30 31 32 33 33 34 34 35 36 36 36 37 38 39 40 41 42 42 43 43 44 44 45 45 46 46 47 47
35 34 33 33 32 32 31 30 30 30 30 31 31 30 31 31 32 33 34 35 35 36 36 36 37 38 39 40 40 41 42 43 43 43 44 45 45 46 46 47 48 49 50
35 35 35 35 34 33 32 32 32 32 32 32 32 32 32 33 33 34 34 35 36 36 36 37 38 39 40 40 41 41 42 43 43 44 45 46 47 48 48 49 50 50 51
36 35 35 35 35 34 34 34 34 34 34 34 34 34 34 34 35 35 36 36 36 37 37 38 39 40 41 41 41 42 42 43 44 45 46 47 48 49 50 50 50 50 51
37 36 36 36 35 35 35 35 35 35 34 35 35 36 36 36 36 36 36 37 37 38 39 40 40 41 41 41 42 43 43 44 45 46 47 48 48 49 49 50 50 50 51
38 37 36 35 35 36 36 35 36 36 36 36 36 36 36 36 37 37 37 38 38 39 40 41 41 41 41 42 43 43 44 44 45 47 47 47 47 48 49 49 50 50 50
39 38 37 36 36 36 36 36 36 36 37 37 37 37 37 37 37 37 38 39 39 40 40 40 41 42 42 43 44 44 44 45 46 47 47 47 48 48 49 49 49 49 48
39 39 38 37 37 37 37 37 37 37 37 37 37 38 38 39 38 38 38 39 39 40 41 41 42 42 42 43 44 44 45 46 47 47 48 48 48 49 49 49 48 47 46
38 38 38 38 38 39 39 38 37 38 38 38 38 38 38 38 39 38 38 38 39 40 41 42 42 42 42 43 44 45 46 47 47 48 48 48 48 49 49 48 47 46 45
39 38 39 39 39 40 39 39 38 38 38 38 38 38 39 39 39 39 39 39 39 40 41 42 42 42 42 43 44 45 46 47 47 48 48 48 48 48 48 48 47 46 46
42 41 41 40 40 40 40 39 38 38 38 38 39 39 39 39 39 40 40 40 40 40 41 42 43 43 43 44 44 45 46 47 48 48 49 49 49 48 48 47 47 47 48
43 43 42 41 41 40 40 39 39 39 39 39 39 39 40 40 40 41 41 41 41 41 41 42 42 43 44 45 45 46 47 48 49 49 49 50 49 48 48 48 49 49 49
44 43 43 42 41 40 39 39 39 39 39 39 39 39 40 40 41 41 42 42 42 42 41 42 43 44 45 45 46 47 48 50 50 49 50 50 49 49 49 50 49 50 50
44 44 44 43 42 41 40 40 40 40 39 39 39 39 40 41 41 41 42 42 42 42 42 42 43 44 45 46 47 48 49 50 50 51 52 51 51 50 51 51 50 50 49
44 44 43 42 42 42 41 41 40 40 40 40 40 40 40 41 42 42 42 42 42 42 42 41 42 43 45 46 47 49 50 50 51 52 52 52 51 51 51 49 48 47 45
44 43 42 42 41 41 41 41 40 41 40 40 40 41 41 41 41 41 41 41 41 41 42 41 42 44 45 46 48 49 50 51 52 53 52 52 51 50 48 46 44 43 43
44 43 43 42 41 41 41 40 40 40 40 40 40 40 40 40 41 40 40 40 41 41 41 42 42 44 45 46 48 49 49 51 52 52 51 49 48 46 44 43 43 42 41
43 43 42 42 42 41 41 40 39 39 39 38 38 39 40 40 39 39 40 40 41 41 42 42 43 44 45 47 48 48 49 50 49 48 47 45 43 43 42 43 42 41 39
43 42 42 42 42 41 41 41 40 40 39 39 39 39 39 39 39 39 40 40 41 42 42 42 43 43 45 47 48 49 49 47 45 44 42 42 41 41 42 41 40 40 39
43 43 42 42 41 41 40 40 40 40 40 40 39 39 39 38 38 39 40 40 40 41 42 42 43 44 46 48 48 48 47 44 41 41 40 41 42 42 42 41 40 39 38
43 42 42 42 41 40 40 40 39 40 39 38 38 38 37 38 38 39 39 40 40 41 41 43 44 46 47 48 47 45 43 41 40 40 41 41 42 41 40 39 38 37 36
42 42 42 41 41 41 41 41 39 39 38 38 37 37 37 39 39 39 39 39 39 40 42 44 45 46 46 46 44 43 40 40 41 42 41 40 39 39 38 38 37 35 34
42 41 41 41 40 39 39 39 38 37 37 37 36 36 37 38 38 39 39 39 40 41 42 44 45 45 44 43 42 41 40 40 40 40 39 39 37 36 35 35 34 33 31
41 41 41 40 40 39 39 39 38 36 36 36 36 36 36 37 38 39 40 40 40 41 42 43 42 42 42 41 41 40 40 40 39 39 38 37 36 34 32 31 31 30 29
Wind_Direction
260 263 265 269 272 275 277 280 282 282 284 285 287 288 290 292 293 296 297 298 299 299 300 301 301 301 302 302 302 302 301 300 299 297 296 295 294 294 293 293 292 291 290
259 262 265 268 271 273 275 277 279 281 283 284 285 287 289 291 293 296 297 298 298 299 300 301 301 302 302 302 302 302 301 300 299 297 296 295 295 295 294 294 293 292 291
259 261 264 267 269 271 273 275 277 279 280 282 284 285 288 291 293 295 297 298 298 299 300 301 301 302 302 303 303 303 302 301 300 299 298 297 297 296 296 295 294 293 292
259 260 263 266 269 270 271 273 275 276 278 280 283 285 288 291 294 296 297 298 299 299 299 300 301 302 303 303 303 303 303 302 301 300 300 299 298 297 297 296 294 294 293
258 259 262 265 268 270 270 271 273 275 277 280 282 285 288 291 294 296 296 297 298 299 299 300 302 303 304 304 305 305 305 304 303 302 300 300 299 298 298 297 296 295 294
257 259 262 265 267 268 270 270 271 274 276 279 281 285 288 291 293 295 297 297 298 299 300 301 302 303 304 305 305 306 306 306 305 304 303 301 300 299 299 298 297 296 295
256 258 261 264 265 267 269 270 271 273 275 278 281 284 287 290 292 294 296 297 298 298 300 301 302 303 304 305 305 306 306 306 307 306 305 303 302 301 300 299 299 297 297
255 258 261 262 264 266 267 269 272 273 275 278 281 283 286 288 290 293 294 296 297 299 300 301 301 303 304 305 306 306 306 307 308 308 307 306 304 303 302 302 301 300 299
255 257 259 261 263 265 268 269 271 274 276 278 280 283 285 287 289 291 293 295 296 298 300 301 302 303 303 304 305 306 307 308 308 309 308 307 307 305 304 303 303 301 300
254 256 258 260 262 265 267 269 272 275 276 279 281 283 285 286 288 290 292 294 296 297 299 300 302 303 303 304 305 306 306 307 308 309 309 308 308 307 306 305 304 302 301
253 255 256 259 263 265 267 270 272 274 277 279 281 282 284 286 287 289 291 293 295 297 298 300 301 303 303 304 306 307 307 308 308 309 309 309 308 308 308 307 305 303 302
252 255 257 260 263 265 266 268 272 274 277 278 280 282 283 285 286 289 291 292 294 296 298 299 301 302 303 304 306 307 307 308 309 309 310 310 310 309 308 308 306 304 303
254 256 258 260 263 265 266 268 271 274 276 278 280 282 283 284 285 288 290 292 294 296 297 298 300 301 302 304 306 307 308 309 309 309 310 310 310 309 309 309 307 305 304
255 256 258 260 262 265 266 268 271 273 276 278 280 281 283 283 285 287 289 291 292 294 296 298 300 301 302 304 305 307 308 309 310 310 309 309 309 309 308 308 307 306 304
255 257 258 261 262 264 265 268 271 273 276 277 279 281 282 283 285 287 289 290 292 294 295 297 299 301 303 304 305 307 308 309 310 310 309 309 309 309 308 308 307 306 305
256 257 258 260 262 262 264 267 270 272 274 276 278 279 281 283 285 287 288 290 292 294 296 298 299 301 303 305 306 307 308 309 310 310 310 310 309 308 308 307 307 307 307
256 258 259 260 261 262 264 267 269 272 274 276 277 279 281 284 286 287 288 290 292 294 296 298 300 302 304 305 306 307 309 309 309 310 310 309 309 308 308 308 308 308 307
256 257 258 259 260 262 265 267 270 271 273 275 277 278 281 284 286 287 288 290 292 295 297 299 300 302 304 305 306 308 309 310 310 310 309 309 309 309 310 310 310 309 308
256 257 258 258 260 262 264 266 269 271 273 275 277 278 281 283 285 287 289 290 292 295 297 299 301 302 304 306 307 309 310 310 310 310 310 310 311 312 312 311 312 311 309
256 257 258 259 260 262 263 266 269 270 272 274 276 279 282 284 286 287 289 291 292 295 297 299 301 302 304 306 308 309 311 311 311 311 312 313 314 314 314 313 313 312 312
255 257 257 258 260 262 264 266 268 270 272 274 277 279 282 284 285 287 289 290 292 295 297 299 300 302 305 307 308 310 311 312 312 313 314 315 316 316 315 315 315 314 313
256 257 258 259 260 262 264 266 268 269 271 274 276 278 281 283 285 287 289 290 293 296 297 299 301 304 307 308 309 311 312 312 312 313 314 315 316 315 315 315 315 315 314
256 258 259 260 261 262 263 265 268 270 272 274 276 278 280 282 285 288 289 290 293 297 299 301 303 306 308 309 310 311 312 312 313 314 315 316 316 316 316 316 316 316 316
256 258 259 261 261 262 263 265 267 270 271 274 276 278 280 283 285 287 289 292 294 297 300 302 304 307 308 309 310 311 311 312 313 314 316 316 316 316 317 317 318 317 318
255 257 258 260 262 263 264 265 265 268 271 274 276 277 280 283 285 287 289 292 294 297 300 303 305 307 309 309 310 311 311 312 312 314 315 316 316 316 317 317 317 318 320
254 255 257 259 261 262 264 266 266 266 269 272 274 277 280 283 286 287 290 293 295 297 300 303 305 308 309 310 310 311 311 311 313 314 315 316 315 315 316 315 315 317 320
Height
5825 5826 5827 5827 5828 5828 5828 5828 5827 5827 5827 5826 5826 5825 5824 5823 5821 5820 5818 5816 5814 5811 5809 5807 5804 5801 5798 5795 5791 5788 5785 5782 5779 5776 5773 5770 5767 5764 5761 5758 5755 5752 5749
5818 5819 5820 5821 5822 5822 5822 5822 5822 5821 5821 5821 5820 5819 5818 5817 5815 5814 5812 5810 5807 5805 5802 5800 5797 5794 5790 5787 5784 5780 5777 5773 5770 5767 5763 5760 5757 5754 5751 5747 5744 5741 5738
5811 5813 5814 5814 5815 5815 5816 5816 5816 5815 5815 5815 5814 5813 5812 5810 5809 5807 5805 5803 5801 5798 5795 5792 5789 5786 5783 5779 5775 5772 5768 5764 5761 5757 5753 5750 5746 5743 5740 5736 5733 5729 5726
5804 5805 5807 5807 5808 5809 5809 5809 5809 5809 5809 5808 5807 5806 5805 5804 5802 5800 5798 5796 5794 5791 5788 5785 5782 5778 5775 5771 5767 5763 5759 5755 5751 5747 5743 5739 5735 5732 5728 5724 5720 5717 5713
5796 5798 5799 5800 5801 5802 5802 5803 5803 5803 5802 5802 5801 5800 5798 5797 5795 5793 5791 5788 5786 5783 5781 5778 5774 5770 5766 5762 5758 5754 5749 5745 5741 5737 5733 5728 5724 5720 5716 5712 5708 5704 5700
5789 5790 5792 5792 5793 5794 5795 5795 5796 5796 5795 5795 5794 5792 5791 5790 5788 5786 5783 5781 5778 5776 5773 5770 5766 5762 5758 5754 5750 5745 5740 5736 5731 5727 5722 5717 5713 5708 5704 5700 5695 5691 5686
5780 5782 5784 5785 5786 5787 5787 5788 5788 5788 5788 5787 5787 5785 5784 5782 5780 5778 5776 5773 5770 5768 5765 5761 5757 5754 5750 5746 5741 5736 5732 5727 5722 5716 5711 5706 5701 5697 5692 5687 5682 5677 5673
5772 5774 5775 5777 5778 5779 5780 5780 5780 5780 5780 5780 5779 5778 5777 5775 5773 5770 5768 5765 5762 5759 5756 5752 5749 5745 5741 5737 5733 5728 5723 5718 5712 5707 5701 5695 5690 5685 5680 5675 5670 5665 5660
5763 5765 5767 5768 5770 5771 5771 5772 5772 5772 5772 5771 5771 5770 5768 5767 5765 5763 5760 5757 5754 5751 5747 5744 5740 5736 5732 5728 5724 5719 5714 5709 5703 5697 5691 5685 5680 5674 5669 5663 5658 5653 5648
5754 5756 5758 5759 5761 5762 5763 5764 5764 5764 5763 5763 5762 5761 5760 5758 5757 5755 5753 5749 5746 5743 5739 5735 5731 5727 5723 5719 5714 5709 5705 5699 5693 5687 5681 5675 5669 5663 5658 5652 5647 5641 5636
5745 5747 5749 5750 5752 5753 5754 5755 5755 5755 5755 5755 5754 5752 5751 5749 5747 5746 5744 5742 5738 5734 5731 5727 5723 5719 5715 5710 5706 5700 5695 5690 5684 5678 5672 5665 5659 5653 5647 5641 5635 5630 5625
5736 5738 5740 5742 5743 5744 5745 5746 5746 5746 5746 5746 5745 5743 5742 5741 5739 5737 5736 5733 5730 5726 5722 5718 5714 5710 5706 5702 5697 5691 5686 5680 5674 5668 5662 5655 5649 5643 5636 5631 5625 5620 5614
5727 5729 5730 5732 5734 5735 5736 5737 5737 5737 5737 5737 5736 5735 5733 5732 5730 5728 5727 5724 5722 5719 5714 5710 5705 5702 5697 5693 5688 5682 5677 5671 5665 5658 5652 5645 5639 5632 5626 5620 5614 5609 5603
5717 5719 5721 5723 5724 5726 5727 5728 5728 5728 5728 5728 5727 5726 5724 5723 5721 5719 5717 5715 5713 5711 5706 5702 5697 5693 5688 5683 5678 5673 5667 5661 5655 5648 5642 5635 5629 5622 5616 5609 5603 5597 5591
5707 5710 5711 5713 5715 5716 5718 5718 5719 5719 5719 5719 5718 5717 5715 5714 5712 5710 5708 5705 5703 5701 5698 5694 5689 5684 5679 5674 5668 5663 5657 5651 5644 5638 5632 5625 5618 5611 5605 5598 5592 5586 5580
5697 5700 5702 5704 5706 5707 5708 5709 5710 5710 5710 5709 5708 5707 5706 5704 5703 5701 5698 5696 5693 5690 5688 5684 5680 5675 5670 5664 5659 5653 5647 5640 5634 5627 5621 5614 5607 5600 5593 5586 5580 5574 5567
5687 5690 5692 5694 5696 5697 5698 5699 5700 5701 5700 5700 5699 5698 5697 5695 5694 5692 5689 5686 5684 5681 5678 5675 5670 5665 5661 5655 5650 5643 5637 5630 5623 5616 5609 5602 5595 5588 5581 5574 5568 5562 5556
5677 5679 5682 5684 5686 5687 5689 5690 5691 5691 5691 5690 5689 5688 5687 5686 5684 5682 5680 5677 5674 5671 5668 5665 5661 5656 5651 5646 5640 5634 5627 5619 5612 5604 5597 5590 5583 5576 5570 5564 5558 5552 5546
5668 5670 5672 5674 5676 5678 5679 5680 5681 5681 5681 5681 5680 5679 5678 5677 5675 5673 5671 5668 5665 5662 5659 5655 5652 5647 5642 5636 5631 5624 5617 5609 5601 5593 5586 5579 5572 5566 5559 5554 5548 5542 5536
5658 5660 5662 5664 5666 5668 5669 5671 5671 5672 5672 5671 5670 5670 5669 5667 5666 5664 5661 5659 5656 5653 5650 5646 5642 5637 5632 5627 5621 5615 5608 5600 5591 5583 5575 5569 5563 5557 5551 5545 5539 5533 5527
5648 5650 5653 5655 5657 5658 5660 5661 5662 5662 5662 5662 5661 5660 5659 5658 5656 5655 5652 5650 5647 5644 5640 5637 5633 5628 5623 5617 5611 5604 5597 5590 5582 5575 5568 5561 5555 5549 5543 5536 5530 5524 5518
5638 5641 5643 5645 5647 5649 5650 5651 5652 5652 5653 5652 5652 5651 5650 5649 5647 5645 5643 5640 5638 5634 5631 5627 5623 5618 5613 5607 5600 5593 5586 5581 5575 5569 5562 5555 5548 5541 5534 5528 5522 5515 5509
5628 5631 5633 5635 5637 5639 5640 5642 5642 5643 5643 5643 5642 5642 5641 5640 5638 5636 5634 5631 5628 5624 5621 5618 5613 5608 5603 5597 5591 5584 5577 5570 5565 5559 5554 5548 5540 5533 5526 5520 5514 5508 5502
5618 5621 5623 5625 5627 5629 5630 5632 5633 5634 5634 5634 5633 5633 5632 5630 5629 5628 5625 5623 5619 5616 5612 5608 5604 5598 5592 5586 5580 5574 5568 5563 5557 5551 5545 5540 5533 5527 5520 5513 5507 5501 5495
5608 5611 5613 5616 5617 5619 5621 5622 5623 5624 5624 5624 5624 5624 5623 5621 5620 5619 5617 5614 5611 5607 5603 5598 5593 5588 5582 5576 5571 5566 5561 5556 5551 5545 5538 5532 5526 5521 5515 5508 5501 5495 5489
5598 5601 5604 5606 5608 5610 5611 5613 5614 5615 5615 5615 5615 5614 5613 5612 5611 5609 5607 5604 5602 5598 5594 5589 5584 5579 5573 5567 5562 5557 5552 5547 5542 5537 5531 5525 5519 5513 5510 5503 5496 5490 5485